Latest Weather Observations for Barimunya

IDW60801

Issued at 7:32 am WST Sunday 7 February 2016 (issued every 30 minutes, with the page automatically refreshed every 10 minutes)

About weather observations | Map of weather stations | Latest weather observations for WA | Other Formats
Station Details ID: 505053 Name: BARIMUNYA Lat: -22.67 Lon: 119.16 Height: 629.17 m
Data from the previous 72 hours. | See also: Recent months for locations in Western Australia
Date/Time
WST
Temp
°C
App
Temp
°C
Dew
Point
Rel
Hum
%
Delta-T
°C
Wind Press
QNH
hPa
Press
MSL
hPa
Rain
since 9 am
mm
Dir
 
Spd
km/h
Gust
km/h
Spd
kts
Gust
kts
07/07:30am 29.2 24.1 4.0 20 13.2 ESE 20 30 11 16 1014.9 1009.5 0.0
07/07:00am 27.6 23.5 4.6 23 12.1 SE 15 22 8 12 1014.7 1009.3 0.0
07/06:30am 26.3 22.6 4.7 25 11.3 SE 13 17 7 9 1014.5 1009.1 0.0
07/06:00am 25.0 21.8 5.2 28 10.3 ESE 11 15 6 8 1014.2 1008.8 0.0
07/05:30am 24.4 23.5 6.2 31 9.6 CALM 0 0 0 0 1013.8 1008.5 0.0
07/05:00am 22.9 23.4 11.6 49 6.5 CALM 0 0 0 0 1013.4 1008.0 0.0
07/04:30am 23.3 22.7 7.4 36 8.5 CALM 0 0 0 0 1013.2 1007.8 0.0
07/04:00am 23.1 23.1 9.8 43 7.5 CALM 0 0 0 0 1013.0 1007.6 0.0
07/03:30am 24.4 24.3 9.6 39 8.3 CALM 0 6 0 3 1013.0 1007.6 0.0
07/03:00am 25.4 24.2 6.6 30 10.1 ESE 2 7 1 4 1012.9 1007.5 0.0
07/02:30am 26.1 24.0 6.7 29 10.5 E 7 9 4 5 1012.9 1007.5 0.0
07/02:00am 26.5 24.0 6.5 28 10.8 E 9 13 5 7 1012.8 1007.4 0.0
07/01:30am 27.1 24.5 6.0 26 11.3 ESE 9 11 5 6 1013.0 1007.6 0.0
07/01:00am 27.5 24.8 5.7 25 11.7 E 9 15 5 8 1013.0 1007.6 0.0
07/12:30am 27.8 24.8 6.0 25 11.7 ESE 11 13 6 7 1013.2 1007.8 0.0
07/12:00am 28.0 25.9 6.7 26 11.6 ESE 7 11 4 6 1013.4 1008.0 0.0
 
Date/Time
WST
Temp
°C
App
Temp
°C
Dew
Point
Rel
Hum
%
Delta-T
°C
Wind Press
QNH
hPa
Press
MSL
hPa
Rain
since 9 am
mm
Dir
 
Spd
km/h
Gust
km/h
Spd
kts
Gust
kts
06/11:30pm 27.3 25.4 7.7 29 10.8 ESE 7 11 4 6 1013.5 1008.1 0.0
06/11:00pm 26.3 26.7 11.2 38 8.8 CALM 0 0 0 0 1013.7 1008.4 0.0
06/10:30pm 26.8 27.0 10.5 36 9.4 CALM 0 0 0 0 1013.7 1008.4 0.0
06/10:00pm 28.1 27.4 9.9 32 10.5 SE 4 9 2 5 1013.6 1008.2 0.0
06/09:30pm 29.5 27.8 8.5 27 11.9 SE 7 9 4 5 1013.4 1008.0 0.0
06/09:00pm 29.9 28.0 8.9 27 12.0 SE 9 11 5 6 1013.2 1007.8 0.0
06/08:30pm 30.9 28.4 8.0 24 12.9 SE 11 15 6 8 1013.0 1007.6 0.0
06/08:00pm 31.8 29.1 7.5 22 13.7 SE 11 15 6 8 1012.8 1007.4 0.0
06/07:30pm 32.4 29.5 8.0 22 13.9 SE 13 17 7 9 1012.5 1007.1 0.0
06/07:00pm 33.1 29.2 7.1 20 14.6 SE 17 20 9 11 1011.9 1006.5 0.0
06/06:30pm 34.1 29.5 6.4 18 15.5 SE 20 30 11 16 1011.5 1006.1 0.0
06/06:00pm 34.9 30.4 6.2 17 16.1 SE 19 28 10 15 1011.2 1005.8 0.0
06/05:30pm 35.5 31.5 6.7 17 16.3 SSE 17 26 9 14 1011.1 1005.7 0.0
06/05:00pm 35.6 31.6 5.0 15 16.9 S 15 26 8 14 1011.0 1005.6 0.0
06/04:30pm 36.1 32.4 6.3 16 16.8 SSE 15 24 8 13 1010.9 1005.5 0.0
06/04:00pm 35.2 31.5 6.5 17 16.2 SSE 15 28 8 15 1011.0 1005.6 0.0
06/03:30pm 35.7 32.5 6.9 17 16.4 SE 13 20 7 11 1011.2 1005.8 0.0
06/03:00pm 35.2 31.9 6.5 17 16.2 SE 13 26 7 14 1011.4 1006.0 0.0
06/02:30pm 35.1 32.4 7.2 18 15.9 SE 11 26 6 14 1011.6 1006.2 0.0
06/02:00pm 34.8 33.0 7.0 18 15.8 SE 6 15 3 8 1012.0 1006.6 0.0
06/01:30pm 35.0 32.0 7.9 19 15.6 SSW 13 30 7 16 1012.5 1007.1 0.0
06/01:00pm 34.0 31.8 7.9 20 14.9 SSE 9 17 5 9 1012.7 1007.3 0.0
06/12:30pm 33.6 31.3 9.0 22 14.3 E 11 17 6 9 1013.1 1007.7 0.0
06/12:00pm 32.8 30.7 8.3 22 14.0 E 9 19 5 10 1013.5 1008.1 0.0
06/11:30am 31.9 30.2 10.0 26 12.8 E 9 19 5 10 1014.1 1008.7 0.0
06/11:00am 31.3 29.1 9.5 26 12.6 E 11 20 6 11 1014.6 1009.2 0.0
06/10:30am 31.0 28.1 9.8 27 12.3 E 15 24 8 13 1014.9 1009.5 0.0
06/10:00am 30.1 26.3 9.1 27 12.0 ENE 19 24 10 13 1015.2 1009.9 0.0
06/09:30am 29.7 26.6 8.7 27 11.9 ESE 15 24 8 13 1015.3 1010.0 0.0
06/09:00am 28.9 25.0 8.6 28 11.5 E 19 26 10 14 1015.4 1010.1 0.0
06/08:30am 28.4 24.4 8.1 28 11.3 E 19 26 10 14 1015.3 1010.0 0.0
06/08:00am 27.9 23.9 8.2 29 11.0 ESE 19 26 10 14 1015.2 1009.9 0.0
06/07:30am 27.1 22.8 8.0 30 10.6 ESE 20 30 11 16 1015.0 1009.6 0.0
06/07:00am 26.4 22.7 7.9 31 10.2 ESE 17 26 9 14 1014.8 1009.4 0.0
06/06:30am 25.6 22.8 8.6 34 9.5 SE 13 17 7 9 1014.4 1009.0 0.0
06/06:00am 24.7 22.3 8.6 36 8.9 ESE 11 13 6 7 1014.0 1008.6 0.0
06/05:30am 24.7 22.4 9.0 37 8.7 ESE 11 15 6 8 1013.4 1008.0 0.0
06/05:00am 25.1 22.9 9.4 37 8.8 SE 11 17 6 9 1013.1 1007.7 0.0
06/04:30am 25.8 22.9 9.6 36 9.2 SE 15 19 8 10 1012.8 1007.4 0.0
06/04:00am 26.0 23.5 9.8 36 9.2 SE 13 19 7 10 1012.6 1007.2 0.0
06/03:30am 26.2 24.3 10.4 37 9.1 SE 11 15 6 8 1012.5 1007.1 0.0
06/03:00am 26.2 24.8 10.8 38 8.9 SE 9 11 5 6 1012.1 1006.7 0.0
06/02:30am 27.1 25.5 10.3 35 9.7 SE 9 13 5 7 1012.0 1006.6 0.0
06/02:00am 26.3 25.5 11.6 40 8.6 SE 7 11 4 6 1012.0 1006.6 0.0
06/01:30am 24.4 26.4 16.1 60 5.2 CALM 0 0 0 0 1012.0 1006.6 0.0
06/01:00am 26.0 25.7 12.8 44 7.9 SE 6 7 3 4 1012.3 1006.9 0.0
06/12:30am 25.2 26.9 15.2 54 6.2 CALM 0 0 0 0 1012.5 1007.1 0.0
06/12:00am 25.9 27.3 14.4 49 7.0 CALM 0 0 0 0 1012.8 1007.4 0.0
 
Date/Time
WST
Temp
°C
App
Temp
°C
Dew
Point
Rel
Hum
%
Delta-T
°C
Wind Press
QNH
hPa
Press
MSL
hPa
Rain
since 9 am
mm
Dir
 
Spd
km/h
Gust
km/h
Spd
kts
Gust
kts
05/11:30pm 26.9 27.6 12.2 40 8.7 CALM 0 0 0 0 1013.1 1007.7 0.0
05/11:00pm 28.6 27.5 10.8 33 10.4 SE 7 9 4 5 1013.2 1007.8 0.0
05/10:30pm 29.2 27.8 10.8 32 10.8 SE 9 13 5 7 1013.3 1007.9 0.0
05/10:00pm 30.2 27.1 10.2 29 11.7 SE 17 20 9 11 1013.2 1007.8 0.0
05/09:30pm 30.3 27.7 10.8 30 11.5 SE 15 22 8 12 1013.1 1007.7 0.0
05/09:00pm 30.8 28.2 10.7 29 11.9 ESE 15 20 8 11 1012.9 1007.5 0.0
05/08:30pm 30.9 28.8 11.3 30 11.7 ESE 13 20 7 11 1012.7 1007.3 0.0
05/08:00pm 31.0 29.1 11.9 31 11.5 E 13 17 7 9 1012.5 1007.1 0.0
05/07:30pm 31.5 30.5 12.3 31 11.6 E 9 13 5 7 1012.3 1006.9 0.0
05/07:00pm 32.1 31.5 12.3 29 12.0 E 7 11 4 6 1011.8 1006.4 0.0
05/06:30pm 33.3 31.8 10.6 25 13.5 E 9 13 5 7 1011.5 1006.1 0.0
05/06:00pm 34.4 32.2 10.9 24 14.1 ESE 13 17 7 9 1011.3 1005.9 0.0
05/05:30pm 34.3 31.7 10.8 24 14.1 E 15 20 8 11 1011.0 1005.6 0.0
05/05:00pm 34.7 32.8 10.5 23 14.5 SE 11 17 6 9 1011.0 1005.6 0.0
05/04:30pm 34.4 33.7 11.5 25 13.9 E 6 11 3 6 1011.0 1005.6 0.0
05/04:00pm 34.9 32.1 11.3 24 14.3 E 17 33 9 18 1011.1 1005.7 0.0
05/03:30pm 34.5 33.5 11.0 24 14.1 SSE 7 13 4 7 1011.1 1005.7 0.0
05/03:00pm 34.5 32.9 11.6 25 13.9 E 11 24 6 13 1011.3 1005.9 0.0
05/02:30pm 34.5 33.7 11.0 24 14.1 SSE 6 17 3 9 1011.3 1005.9 0.0
05/02:00pm 34.2 31.2 12.0 26 13.5 SSE 19 35 10 19 1011.6 1006.2 0.0
05/01:30pm 33.2 31.1 11.1 26 13.2 SE 13 24 7 13 1011.9 1006.5 0.0
05/01:00pm 33.8 30.7 11.6 26 13.4 ESE 19 30 10 16 1012.5 1007.1 0.0
05/12:30pm 33.3 30.3 11.8 27 13.0 ESE 19 32 10 17 1012.8 1007.4 0.0
05/12:00pm 32.6 29.0 11.7 28 12.6 ESE 22 35 12 19 1013.2 1007.8 0.0
05/11:30am 32.7 29.2 12.3 28 12.4 ESE 22 32 12 17 1013.7 1008.4 0.0
05/11:00am 31.4 28.3 12.2 30 11.6 E 20 30 11 16 1014.4 1009.0 0.0
05/10:30am 30.8 27.7 11.7 31 11.4 ESE 19 28 10 15 1014.8 1009.4 0.0
05/10:00am 29.5 26.5 12.4 35 10.3 E 20 33 11 18 1015.2 1009.9 0.0
05/09:30am 28.7 25.4 11.7 35 10.1 ESE 20 30 11 16 1015.3 1010.0 0.0
05/09:00am 28.1 23.9 11.2 35 9.9 SE 24 30 13 16 1015.3 1010.0 0.0
05/08:30am 27.4 23.1 10.6 35 9.7 ESE 24 33 13 18 1015.5 1010.2 0.0
05/08:00am 27.0 23.1 10.7 36 9.4 ESE 22 33 12 18 1015.4 1010.1 0.0
05/07:30am 26.0 21.7 10.6 38 8.9 SE 24 33 13 18 1015.2 1009.9 0.0
05/07:00am 25.3 21.9 11.1 41 8.2 SE 20 30 11 16 1015.2 1009.9 0.0
05/06:30am 24.4 20.5 10.7 42 7.8 SE 22 30 12 16 1014.9 1009.5 0.0
05/06:00am 24.2 20.0 11.2 44 7.5 SE 24 32 13 17 1014.5 1009.1 0.0
05/05:30am 24.5 20.7 11.1 43 7.7 SE 22 33 12 18 1014.2 1008.8 0.0
05/05:00am 24.9 21.1 11.1 42 8.0 SE 22 28 12 15 1013.8 1008.5 0.0
05/04:30am 25.0 21.7 11.6 43 7.8 SE 20 30 11 16 1013.5 1008.1 0.0
05/04:00am 25.4 22.1 11.6 42 8.1 SE 20 24 11 13 1013.4 1008.0 0.0
05/03:30am 26.0 22.4 11.7 41 8.4 SE 22 28 12 15 1013.2 1007.8 0.0
05/03:00am 26.3 23.1 12.0 41 8.4 SE 20 30 11 16 1013.3 1007.9 0.0
05/02:30am 26.7 23.1 12.0 40 8.7 SE 22 28 12 15 1013.2 1007.8 0.0
05/02:00am 27.0 24.5 13.4 43 8.2 SE 19 24 10 13 1013.2 1007.8 0.0
05/01:30am 26.3 26.2 15.0 49 7.0 SE 9 11 5 6 1013.2 1007.8 0.0
05/01:00am 26.9 26.7 14.6 46 7.6 SE 9 13 5 7 1013.3 1007.9 0.0
05/12:30am 27.3 26.7 14.7 46 7.8 SSE 11 13 6 7 1013.4 1008.0 0.0
05/12:00am 26.7 28.5 15.4 50 7.1 CALM 0 0 0 0 1013.5 1008.1 0.0
 
Date/Time
WST
Temp
°C
App
Temp
°C
Dew
Point
Rel
Hum
%
Delta-T
°C
Wind Press
QNH
hPa
Press
MSL
hPa
Rain
since 9 am
mm
Dir
 
Spd
km/h
Gust
km/h
Spd
kts
Gust
kts
04/11:30pm 26.8 28.6 15.5 50 7.1 CALM 0 0 0 0 1013.6 1008.2 0.0
04/11:00pm 27.7 27.6 15.0 45 7.9 SE 9 13 5 7 1013.8 1008.5 0.0
04/10:30pm 27.9 27.9 15.2 46 7.9 SSE 9 11 5 6 1014.0 1008.6 0.0
04/10:00pm 28.6 28.1 14.8 43 8.6 SSE 11 15 6 8 1014.1 1008.7 0.0
04/09:30pm 28.6 29.0 15.2 44 8.4 SSE 7 11 4 6 1014.0 1008.6 0.0
04/09:00pm 28.1 30.4 16.7 50 7.3 CALM 0 0 0 0 1013.7 1008.4 0.0
04/08:30pm 29.2 29.2 14.2 40 9.3 E 7 9 4 5 1013.5 1008.1 0.0
04/08:00pm 29.6 29.6 14.2 39 9.5 E 7 9 4 5 1013.4 1008.0 0.0
04/07:30pm 30.3 29.4 13.6 36 10.3 E 11 13 6 7 1013.1 1007.7 0.0
04/07:00pm 30.9 29.8 13.2 34 10.8 ESE 11 15 6 8 1012.9 1007.5 0.0
04/06:30pm 31.7 30.0 12.5 31 11.7 E 13 17 7 9 1012.6 1007.2 0.0
04/06:00pm 32.6 29.7 12.3 29 12.4 SE 19 26 10 14 1012.4 1007.0 0.0
04/05:30pm 32.5 30.3 12.2 29 12.3 ESE 15 22 8 12 1012.1 1006.7 0.0
04/05:00pm 32.8 30.5 12.9 29 12.2 SE 17 24 9 13 1011.9 1006.5 0.0
04/04:30pm 33.3 30.4 12.9 29 12.6 SE 20 28 11 15 1011.9 1006.5 0.0
04/04:00pm 32.7 31.1 12.9 30 12.2 E 13 20 7 11 1011.9 1006.5 0.0
04/03:30pm 32.7 30.6 12.3 28 12.4 ESE 15 43 8 23 1012.0 1006.6 0.0
04/03:00pm 32.7 31.3 13.4 31 11.9 ENE 13 22 7 12 1012.1 1006.7 0.0
04/02:30pm 32.5 29.7 12.7 30 12.1 E 19 26 10 14 1012.5 1007.1 0.0
04/02:00pm 31.9 31.6 12.7 31 11.7 SSE 6 15 3 8 1012.8 1007.4 0.0
04/01:30pm 31.5 29.8 12.3 31 11.6 SE 13 24 7 13 1013.3 1007.9 0.0
04/01:00pm 30.9 27.8 12.3 32 11.2 ESE 20 28 11 15 1013.6 1008.2 0.0
04/12:30pm 31.1 29.2 12.9 32 11.1 ESE 15 30 8 16 1014.1 1008.7 0.0
04/12:00pm 30.9 28.8 12.3 32 11.2 ESE 15 26 8 14 1014.6 1009.2 0.0
04/11:30am 29.5 26.7 11.5 33 10.7 E 17 24 9 13 1015.1 1009.7 0.0
04/11:00am 28.9 25.4 11.0 33 10.5 SE 20 28 11 15 1015.5 1010.2 0.0
04/10:30am 27.6 23.9 10.3 34 10.0 ESE 20 32 11 17 1016.0 1010.6 0.0
04/10:00am 26.9 22.8 10.2 35 9.6 ESE 22 30 12 16 1016.3 1010.9 0.0
04/09:30am 26.2 21.7 10.0 36 9.2 SE 24 33 13 18 1016.5 1011.1 0.0
04/09:00am 25.6 19.4 9.4 36 9.1 SE 32 43 17 23 1016.5 1011.1 0.0
04/08:30am 24.5 18.0 8.9 37 8.7 SE 33 41 18 22 1016.4 1011.0 0.0
04/08:00am 24.2 18.2 8.6 37 8.6 SE 30 39 16 21 1016.3 1010.9 0.0

Other Formats:

Comma delimited format used in spreadsheet applications
http://www.bom.gov.au/fwo/IDW60801/IDW60801.99313.axf

JavaScript Object Notation format (JSON) in row-major order
http://www.bom.gov.au/fwo/IDW60801/IDW60801.99313.json